Flag for U.S.A. Weather past 2 weeks in Port St. Lucie, Florida, U.S.A.

Now
88 °F

Thundershowers. Scattered clouds.


Feels Like: 96 °F
Forecast: 75 / 91 °F
Wind: 12 mph from Northeast

Location: Witham Field Airport

Current Time: Sep 4, 2015 at 3:43:40 PM

Latest Report: Sep 4, 2015 at 2:50 PM


Visibility: 7 mi

Pressure: 29.96 "Hg

Humidity: 62%

Dew point: 73 °F

Location of Port St. LucieLocation

Historic Weather in Port St. Lucie — Graph

°F

Port St. Lucie temperature yesterday

Maximum temperature yesterday: 88 °F (at 12:47 PM)
Minimum temperature yesterday: 77 °F (at 3:35 AM)
Average temperature yesterday: 80 °F

Past Weeks' High & Low Weather Summary

 TemperatureHumidityPressure
High91 °F (Aug 25, 1:47 PM)94% (Aug 21, 7:47 AM)30.12 "Hg (Aug 21, 7:47 AM)
Low73 °F (Aug 27, 3:15 AM)49% (Aug 25, 11:47 AM)29.89 "Hg (Aug 24, 5:50 PM)
Average80 °F81%29.99 "Hg
* Reported Aug 20 1:47 PM — Sep 4 1:47 PM, Port St. Lucie, Weather by CustomWeather, © 2015

Note: Actual official high and low records may vary slightly from our data, if they occured in-between our weather recording intervals... More about our weather records

Advertising

Port St. Lucie weather history for previous 24 hours

 ConditionsComfort  
Time TempWeatherWind HumidityBarometerVisibility
1:47 PM
Fri, Sep 4
88 °FScattered clouds.9 mph66%29.96 "Hg7 mi
12:47 PM88 °FScattered clouds.No wind66%29.99 "Hg7 mi
11:47 AM86 °FScattered clouds.7 mph70%30.00 "Hg7 mi
6:50 AM75 °FPassing clouds.No wind94%29.95 "Hg10 mi
6:15 AM75 °FMild.3 mph89%29.95 "HgN/A
5:55 AM75 °FMild.No wind89%29.94 "HgN/A
5:35 AM75 °FMild.5 mph89%29.94 "HgN/A
5:15 AM75 °FMild.7 mph89%29.94 "HgN/A
4:55 AM75 °FMild.7 mph94%29.93 "HgN/A
4:35 AM75 °FMild.5 mph89%29.93 "HgN/A
4:15 AM75 °FMild.3 mph89%29.93 "HgN/A
3:55 AM75 °FMild.5 mph89%29.92 "HgN/A
3:35 AM75 °FMild.3 mph89%29.92 "HgN/A
3:15 AM77 °FWarm.5 mph89%29.93 "HgN/A
2:55 AM77 °FWarm.5 mph89%29.93 "HgN/A
2:35 AM77 °FWarm.5 mph83%29.94 "HgN/A
2:15 AM77 °FWarm.3 mph83%29.94 "HgN/A
1:55 AM77 °FWarm.6 mph83%29.94 "HgN/A
1:35 AM77 °FWarm.6 mph83%29.94 "HgN/A
1:15 AM77 °FWarm.7 mph83%29.95 "HgN/A
12:55 AM77 °FWarm.3 mph83%29.95 "HgN/A
12:35 AM77 °FWarm.3 mph83%29.96 "HgN/A
12:15 AM77 °FClear.5 mph83%29.96 "HgN/A
11:55 PM
Thu, Sep 3
77 °FPassing clouds.3 mph83%29.96 "HgN/A
11:35 PM77 °FPassing clouds.6 mph83%29.96 "HgN/A
11:15 PM79 °FPassing clouds.6 mph79%29.97 "HgN/A
10:55 PM79 °FPassing clouds.6 mph74%29.97 "HgN/A
10:35 PM79 °FClear.6 mph74%29.97 "HgN/A
10:15 PM79 °FPassing clouds.6 mph74%29.96 "HgN/A
9:55 PM81 °FThundershowers. Clear.7 mph74%29.96 "HgN/A
9:35 PM81 °FPassing clouds.6 mph79%29.95 "HgN/A
9:15 PM82 °FClear.5 mph74%29.95 "HgN/A
8:55 PM82 °FPassing clouds.No wind74%29.95 "HgN/A
8:35 PM82 °FSunny.3 mph74%29.94 "HgN/A
8:15 PM82 °FSunny.6 mph74%29.94 "HgN/A
7:55 PM82 °FScattered clouds.5 mph74%29.93 "HgN/A
7:35 PM82 °FThundershowers. Broken clouds.3 mph70%29.93 "HgN/A
7:15 PM84 °FScattered clouds.5 mph70%29.92 "HgN/A
6:55 PM86 °FSunny.7 mph66%29.92 "HgN/A
6:15 PM86 °FScattered clouds.8 mph70%29.92 "HgN/A
4:47 PM84 °FScattered clouds.No wind70%29.93 "Hg7 mi
3:47 PM84 °FScattered showers. Broken clouds.No wind70%29.95 "Hg7 mi
Weather by CustomWeather, © 2015

See weather overviewHow to use our weather pages